Regional Weather Roundup
Issued by NWS Goodland, KS

Home | Current Version | Previous Version | Text Only | Print | Product List | Glossary Off
Versions: 1 2 3 4 5 6 7 8 9 10 11 12 13 14 15 16 17 18 19 20 21 22 23 24 25 26 27 28 29 30 31 32 33 34 35 36 37 38 39 40 41 42 43 44 45 46 47 48 49 50

000
ASUS43 KGLD 031659
RWRGLD

GOODLAND FORECAST AREA HOURLY WEATHER ROUNDUP
NATIONAL WEATHER SERVICE GOODLAND KS
1100 AM MDT SUN MAY 03 2015

...OFFICIAL OBSERVATIONS...

CITY           SKY/WX    TMP DP  RH WIND       PRES   REMARKS
GOODLAND KS    SUNNY     80  40  23 N12       29.89R
HILL CITY KS   SUNNY     83  48  29 S3        29.81S
IMPERIAL NEB   SUNNY     79  42  26 NW18G25   29.85R
MCCOOK NEB     SUNNY     80  44  27 W6G16     29.82S
AKRON CO       SUNNY     73  41  31 N15       29.96S
BURLINGTON CO  SUNNY     78  41  26 N13       29.93R
LIMON CO       SUNNY     75  32  20 N10       29.99R
$$

...UNOFFICIAL OBSERVATIONS...

CITY           SKY/WX    TMP DP  RH WIND       PRES   REMARKS
COLBY KS       SUNNY     81  46  30 W3        29.88R
GOVE KS          N/A     84  32  15 MISG        N/A
LENORA KS        N/A     81  32  17 MISG        N/A
NORTON KS      SUNNY     81  36  19 W9        29.81R
SHARON SPRINGS   N/A     78  48  34 MISG        N/A
KIT CARSON CO    N/A     75  47  37 MISG        N/A
YUMA CO          N/A     74  40  28 NW14        N/A
$$


USA.gov is the U.S. government's official web portal to all federal, state and local government web resources and services.